This demonstration page uses our WeatherBlox Daily Observations layout. Learn more.

Left ArrowRight Arrow

34.74481, -87.66753

Hourly Observations for April 17, 2015

Temp ( °F °C ) Dew Point ( °F °C ) Humidity (%) Winds ( mph kmh ) Pressure ( in mb ) Visibility ( mi km ) Precip ( " mm )
12:53 am 00:53 Cloudy 59 15 55 12.8 87 87 SE 7 11 30.12 1020 8 13 0.00 0.00
1:53 am 01:53 Cloudy with Mist and Fog 59 15 56 13.3 90 90 ESE 8 13 30.09 1019 6 10 0.00 0.00
2:45 am 02:45 Cloudy with Mist and Fog 59 15 56 13.3 90 90 E 5 7 30.09 1019 3 5 0.00 0.00
2:53 am 02:53 Cloudy with Mist and Fog 59 15 56 13.3 90 90 ESE 5 7 30.09 1019 3 4 0.00 0.00
3:53 am 03:53 Cloudy with Mist and Fog 59 15 56 13.3 90 90 ESE 7 11 30.09 1019 2 3 0.00 0.00
4:53 am 04:53 Cloudy with Mist and Fog 59 15 57 13.9 93 93 ESE 6 9 30.09 1019 2 3 0.00 0.00
5:49 am 05:49 Cloudy with Mist and Fog 57 14 55 13 94 94 E 6 9 30.12 1020 3 4 0.00 0.00
5:53 am 05:53 Cloudy with Mist and Fog 58 14.4 56 13.3 93 93 ESE 6 9 30.10 1019 2 3 0.00 0.00
6:07 am 06:07 Cloudy with Mist and Fog 59 15 57 13.9 93 93 ESE 6 9 30.12 1020 3 5 0.00 0.00
6:43 am 06:43 Cloudy with Mist and Fog 58 14.4 56 13.3 93 93 E 5 7 30.12 1020 2 3 0.00 0.00
6:53 am 06:53 Cloudy with Mist and Fog 58 14.4 56 13.3 93 93 E 6 9 30.09 1019 1 2 0.00 0.00
7:35 am 07:35 Cloudy with Mist and Fog 59 15 57 13.9 93 93 ESE 6 9 30.12 1020 2 3 0.00 0.00
7:53 am 07:53 Cloudy with Mist and Fog 59 15 57 13.9 93 93 ESE 7 11 30.11 1020 3 5 0.00 0.00
8:53 am 08:53 Cloudy with Mist and Fog 61 16.1 57 13.9 87 87 ESE 6 9 30.11 1020 6 10 0.00 0.00
9:53 am 09:53 Cloudy 61 16.1 57 13.9 87 87 E 7 11 30.10 1019 7 11 0.00 0.00
10:53 am 10:53 Cloudy 63 17.2 58 14.4 84 84 E 7 11 30.10 1019 9 14 0.00 0.00
11:53 am 11:53 Cloudy 63 17.2 58 14.4 84 84 E 5 7 30.09 1019 10 16 0.00 0.00
12:53 pm 12:53 Cloudy 65 18.3 59 15 81 81 SE 5 7 30.08 1019 10 16 0.00 0.00
1:03 pm 13:03 Cloudy 65 18.3 59 15 81 81 SSE 6 9 30.06 1018 10 16 0.00 0.00
1:53 pm 13:53 Cloudy 66 18.9 60 15.6 81 81 Calm 30.06 1018 9 14 0.00 0.00
2:53 pm 14:53 Cloudy 65 18.3 60 15.6 84 84 ESE 5 7 30.03 1017 7 11 0.00 0.00
3:53 pm 15:53 Cloudy with Light Rain 65 18.3 60 15.6 84 84 ESE 6 9 30.01 1016 7 11 0.00 0.03
4:19 pm 16:19 Cloudy with Haze 65 18.3 60 15.6 84 84 E 5 7 29.97 1015 5 8 0.00 0.03
4:53 pm 16:53 Cloudy with Haze 65 18.3 60 15.6 84 84 E 7 11 29.98 1015 6 10 0.00 0.03
5:53 pm 17:53 Cloudy 65 18.3 60 15.6 84 84 E 6 9 29.99 1016 10 16 0.00 0.00
6:20 pm 18:20 Cloudy 65 18.3 60 15.6 84 84 Calm 30.00 1016 10 16 0.00 0.00
6:53 pm 18:53 Cloudy 65 18.3 60 15.6 84 84 ESE 3 6 30.01 1016 10 16 0.00 0.00
7:18 pm 19:18 Cloudy 65 18.3 60 15.6 84 84 E 5 7 30.00 1016 10 16 0.00 0.00
7:53 pm 19:53 Cloudy 65 18.3 60 15.6 84 84 Calm 30.01 1016 10 16 0.00 0.00
8:12 pm 20:12 Cloudy 65 18.3 60 15.6 84 84 Calm 30.00 1016 10 16 0.00 0.00
8:53 pm 20:53 Mostly Cloudy 63 17.2 59 15 87 87 Calm 30.03 1017 10 16 0.00 0.00
9:46 pm 21:46 Mostly Clear 62 16.7 58 14.4 86 86 E 3 6 30.00 1016 8 13 0.00 0.00
9:53 pm 21:53 Mostly Clear 61 16.1 58 14.4 90 90 Calm 30.03 1017 8 13 0.00 0.00
10:30 pm 22:30 Clear with Mist and Fog 58 14.4 56 13.3 93 93 SE 3 6 30.03 1017 2 3 0.00 0.00
10:39 pm 22:39 Clear with Mist and Fog 59 15 56 13.3 90 90 Calm 30.03 1017 1 1 0.00 0.00
10:44 pm 22:44 Clear with Mist and Fog 59 15 56 13.3 90 90 Calm 30.03 1017 3 4 0.00 0.00
10:51 pm 22:51 Clear with Mist and Fog 61 16 57 14 88 88 Calm 30.00 1016 4 6 0.00 0.00
10:53 pm 22:53 Clear with Mist and Fog 59 15 57 13.9 93 93 Calm 30.03 1017 4 6 0.00 0.00
11:03 pm 23:03 Clear with Mist and Fog 58 14.4 56 13.3 93 93 Calm 30.03 1017 2 3 0.00 0.00
11:08 pm 23:08 Mostly Cloudy with Fog 58 14.4 56 13.3 93 93 Calm 30.03 1017 1 1 0.00 0.00
11:29 pm 23:29 Mostly Clear with Mist and Fog 58 14.4 56 13.3 93 93 N 3 6 30.03 1017 1 2 0.00 0.00
11:33 pm 23:33 Mostly Clear with Mist and Fog 60 15.6 57 13.9 90 90 N 3 6 30.00 1016 3 5 0.00 0.00
11:47 pm 23:47 Clear with Mist and Fog 57 14 57 14 100 100 Calm 30.03 1017 2 3 0.00 0.00
11:53 pm 23:53 Clear with Mist and Fog 57 13.9 55 12.8 93 93 Calm 30.01 1016 1 2 0.00 0.00

Powered by AerisWeather